Погода в Сан-Борха

Боливия     14°52′34″S   66°45′52″W
темп.,
°C
ветер,
м/с
пор.,
м/с
влажн.,
%
обл.,
%
осадки,
мм/ч
давл.,
гПа
погр.,
м
27 июля, вт
вт2723:00+22зюз11710 0.0 101211
02:00+21ююз11770 0.0 101112
05:00+20ссз00780 0.0 101211
08:00+22ю01737 0.0 101578
11:00+26в226832 0.9 1017525
14:00+23юв388399 1.3 1016781
17:00+22ююв496253 0.1 10151122
20:00+19ююв3105938 0.1 1017717
28 июля, ср
ср2823:00+18юв3115080 0.0 1019824
02:00+18ююв31142100 0.0 1019863
05:00+18ююв2839100 0.0 1018888
08:00+17юв2943100 0.1 1022873
11:00+15вюв395299 0.3 1024766
14:00+18юв3939100 0.3 10221088
17:00+16юв31043100 0.0 10211023
20:00+16юв31043100 0.0 1023929
29 июля, чт
чт2923:00+16ююв3103798 0.0 10251078
02:00+16юв3103398 0.0 10241152
05:00+15ююв2832100 0.0 10241070
08:00+14ю2841100 0.0 1026531
11:00+16ю2735100 0.0 1027734
14:00+20юв362412 0.0 10231302
17:00+20юв24309 0.0 10201091
20:00+14юв24461 0.0 102191
30 июля, пт
пт3023:00+12ю25503 0.0 102296
02:00+14ю1648100 0.0 1020165
05:00+14ююв144885 0.0 1020114
08:00+15юв294842 0.0 1023333
11:00+22ююв352523 0.0 10241140
14:00+25ююв222393 0.0 10191398
17:00+24ю23319 0.0 1017553
20:00+16ю23461 0.0 101950
31 июля, сб
сб3123:00+14ю245247 0.0 102079
02:00+13ю115569 0.0 101912
05:00+13ю116479 0.0 101917
08:00+15юв13645 0.0 102299
11:00+25юв232995 0.0 1022969
14:00+29вюв112433 0.0 10171532
17:00+27в113596 0.0 101623
20:00+19ююв1148100 0.0 101812